When you browse on this site, cookies collect data to enhance your experience and personalize the content and advertising you see.
Visit our Privacy Policy to learn more. By continuing to use the site, you agree to this use of cookies and data.
  • In Schweiz
  • Länderverzeichnis
  • Für 7 Tage
  • Wassertemperatur
  • Satellitenkarten
  • Wetterkarte
  • Widgets
  • user-avatar
    Anmelden

    Stündliche Wetter Beijing

    Heute, 25 März, Montag

    Zeit Temperatur Niederschläge Wind Luftdruck Luftfeuchtigkeit
    00:00 +14°C° 0 mm 2 m/S 754 mmHg 16%
    01:00 +13°C° 0 mm 2 m/S 754 mmHg 16%
    02:00 +12°C° 0 mm 1 m/S 754 mmHg 17%
    03:00 +12°C° 0 mm 1 m/S 754 mmHg 17%
    04:00 +10°C° 0 mm 2 m/S 754 mmHg 18%
    05:00 +10°C° 0 mm 2 m/S 754 mmHg 18%
    06:00 +12°C° 0 mm 2 m/S 754 mmHg 18%
    07:00 +12°C° 0 mm 3 m/S 754 mmHg 17%
    08:00 +14°C° 0 mm 2 m/S 754 mmHg 16%
    09:00 +16°C° 0 mm 2 m/S 754 mmHg 14%
    10:00 +18°C° 0 mm 3 m/S 754 mmHg 12%
    11:00 +20°C° 0 mm 4 m/S 754 mmHg 10%
    12:00 +20°C° 0 mm 4 m/S 754 mmHg 9%
    13:00 +21°C° 0 mm 4 m/S 754 mmHg 8%
    14:00 +22°C° 0 mm 4 m/S 754 mmHg 7%
    15:00 +22°C° 0 mm 4 m/S 753 mmHg 7%
    16:00 +22°C° 0 mm 4 m/S 753 mmHg 8%
    17:00 +22°C° 0 mm 3 m/S 753 mmHg 8%
    18:00 +21°C° 0 mm 3 m/S 754 mmHg 9%
    19:00 +19°C° 0 mm 2 m/S 754 mmHg 10%
    20:00 +18°C° 0 mm 2 m/S 755 mmHg 12%
    21:00 +17°C° 0 mm 2 m/S 755 mmHg 13%
    22:00 +16°C° 0 mm 2 m/S 756 mmHg 15%
    23:00 +15°C° 0 mm 2 m/S 756 mmHg 17%

    Morgen, 26 März, Dienstag

    Zeit Temperatur Niederschläge Wind Luftdruck Luftfeuchtigkeit
    00:00 +14°C° 0 mm 1 m/S 757 mmHg 18%
    01:00 +14°C° 0 mm 1 m/S 757 mmHg 20%
    02:00 +13°C° 0 mm 1 m/S 757 mmHg 21%
    03:00 +12°C° 0 mm 1 m/S 757 mmHg 22%
    04:00 +12°C° 0 mm 1 m/S 757 mmHg 24%
    05:00 +10°C° 0 mm 2 m/S 757 mmHg 25%
    06:00 +10°C° 0 mm 2 m/S 757 mmHg 26%
    07:00 +10°C° 0 mm 2 m/S 757 mmHg 27%
    08:00 +10°C° 0 mm 2 m/S 757 mmHg 27%
    09:00 +13°C° 0 mm 2 m/S 757 mmHg 26%
    10:00 +14°C° 0 mm 2 m/S 757 mmHg 24%
    11:00 +15°C° 0 mm 2 m/S 757 mmHg 22%
    12:00 +16°C° 0 mm 2 m/S 756 mmHg 20%
    13:00 +18°C° 0 mm 2 m/S 755 mmHg 19%
    14:00 +19°C° 0 mm 2 m/S 754 mmHg 17%
    15:00 +19°C° 0 mm 2 m/S 754 mmHg 16%
    16:00 +20°C° 0 mm 2 m/S 753 mmHg 16%
    17:00 +20°C° 0 mm 3 m/S 753 mmHg 16%
    18:00 +19°C° 0 mm 2 m/S 753 mmHg 18%
    19:00 +18°C° 0 mm 2 m/S 753 mmHg 20%
    20:00 +17°C° 0 mm 2 m/S 753 mmHg 23%
    21:00 +16°C° 0 mm 2 m/S 754 mmHg 26%
    22:00 +15°C° 0 mm 2 m/S 754 mmHg 29%
    23:00 +14°C° 0 mm 1 m/S 754 mmHg 33%

    übermorgen, 27 März, Mittwoch

    Zeit Temperatur Niederschläge Wind Luftdruck Luftfeuchtigkeit
    00:00 +13°C° 0 mm 1 m/S 754 mmHg 35%
    01:00 +13°C° 0 mm 1 m/S 754 mmHg 38%
    02:00 +12°C° 0 mm 1 m/S 754 mmHg 41%
    03:00 +12°C° 0 mm 1 m/S 754 mmHg 40%
    04:00 +11°C° 0 mm 1 m/S 754 mmHg 39%
    05:00 +11°C° 0 mm 1 m/S 754 mmHg 39%
    06:00 +12°C° 0 mm 1 m/S 754 mmHg 33%
    07:00 +13°C° 0 mm 1 m/S 755 mmHg 28%
    08:00 +14°C° 0 mm 2 m/S 756 mmHg 23%
    09:00 +16°C° 0 mm 2 m/S 756 mmHg 20%
    10:00 +17°C° 0 mm 3 m/S 756 mmHg 17%
    11:00 +19°C° 0 mm 4 m/S 757 mmHg 14%
    12:00 +19°C° 0 mm 4 m/S 757 mmHg 14%
    13:00 +20°C° 0 mm 4 m/S 756 mmHg 15%
    14:00 +20°C° 0 mm 4 m/S 756 mmHg 15%
    15:00 +20°C° 0 mm 4 m/S 756 mmHg 16%
    16:00 +19°C° 0 mm 4 m/S 757 mmHg 16%
    17:00 +18°C° 0 mm 4 m/S 757 mmHg 17%
    18:00 +17°C° 0 mm 4 m/S 758 mmHg 16%
    19:00 +15°C° 0 mm 4 m/S 759 mmHg 15%
    20:00 +14°C° 0 mm 4 m/S 760 mmHg 13%
    21:00 +13°C° 0 mm 4 m/S 761 mmHg 15%
    22:00 +12°C° 0 mm 4 m/S 761 mmHg 16%
    23:00 +11°C° 0 mm 3 m/S 762 mmHg 17%

    28 März, Donnerstag

    Zeit Temperatur Niederschläge Wind Luftdruck Luftfeuchtigkeit
    00:00 +10°C° 0 mm 3 m/S 762 mmHg 20%
    01:00 +10°C° 0 mm 3 m/S 762 mmHg 22%
    02:00 +9°C° 0 mm 3 m/S 761 mmHg 25%
    03:00 +9°C° 0 mm 3 m/S 761 mmHg 25%
    04:00 +8°C° 0 mm 3 m/S 761 mmHg 26%
    05:00 +8°C° 0 mm 3 m/S 761 mmHg 26%
    06:00 +8°C° 0.1 mm 3 m/S 761 mmHg 28%
    07:00 +8°C° 0.1 mm 3 m/S 762 mmHg 29%
    08:00 +8°C° 0.1 mm 2 m/S 762 mmHg 30%
    09:00 +8°C° 0.1 mm 3 m/S 761 mmHg 30%
    10:00 +8°C° 0.1 mm 3 m/S 761 mmHg 30%
    11:00 +8°C° 0.1 mm 3 m/S 761 mmHg 30%
    12:00 +9°C° 0 mm 3 m/S 760 mmHg 28%
    13:00 +9°C° 0 mm 3 m/S 759 mmHg 25%
    14:00 +10°C° 0 mm 4 m/S 759 mmHg 23%
    15:00 +10°C° 0 mm 3 m/S 758 mmHg 25%
    16:00 +10°C° 0 mm 3 m/S 758 mmHg 26%
    17:00 +10°C° 0 mm 3 m/S 758 mmHg 28%
    18:00 +10°C° 0 mm 3 m/S 758 mmHg 29%
    19:00 +9°C° 0 mm 3 m/S 758 mmHg 29%
    20:00 +9°C° 0 mm 2 m/S 759 mmHg 30%
    21:00 +8°C° 0 mm 2 m/S 759 mmHg 31%
    22:00 +8°C° 0 mm 2 m/S 759 mmHg 31%
    23:00 +7°C° 0 mm 2 m/S 759 mmHg 32%

    29 März, Freitag

    Zeit Temperatur Niederschläge Wind Luftdruck Luftfeuchtigkeit
    00:00 +7°C° 0 mm 2 m/S 759 mmHg 35%
    01:00 +6°C° 0 mm 2 m/S 759 mmHg 37%
    02:00 +7°C° 0 mm 1 m/S 759 mmHg 40%
    03:00 +7°C° 0 mm 1 m/S 759 mmHg 42%
    04:00 +7°C° 0 mm 1 m/S 759 mmHg 44%
    05:00 +6°C° 0 mm 1 m/S 759 mmHg 47%
    06:00 +7°C° 0 mm 1 m/S 759 mmHg 43%
    07:00 +8°C° 0 mm 1 m/S 759 mmHg 39%
    08:00 +9°C° 0 mm 1 m/S 758 mmHg 35%
    09:00 +10°C° 0 mm 2 m/S 758 mmHg 28%
    10:00 +13°C° 0 mm 2 m/S 758 mmHg 21%
    11:00 +13°C° 0 mm 3 m/S 758 mmHg 14%
    12:00 +14°C° 0 mm 4 m/S 757 mmHg 14%
    13:00 +14°C° 0 mm 6 m/S 757 mmHg 14%
    14:00 +15°C° 0 mm 7 m/S 756 mmHg 14%
    15:00 +13°C° 0 mm 8 m/S 757 mmHg 14%
    16:00 +12°C° 0 mm 8 m/S 757 mmHg 14%
    17:00 +12°C° 0 mm 8 m/S 757 mmHg 15%
    18:00 +11°C° 0 mm 7 m/S 759 mmHg 15%
    19:00 +9°C° 0 mm 7 m/S 760 mmHg 14%
    20:00 +8°C° 0 mm 6 m/S 761 mmHg 14%
    21:00 +8°C° 0 mm 5 m/S 762 mmHg 15%
    22:00 +7°C° 0 mm 5 m/S 762 mmHg 15%
    23:00 +7°C° 0 mm 4 m/S 763 mmHg 15%

    30 März, Samstag

    Zeit Temperatur Niederschläge Wind Luftdruck Luftfeuchtigkeit
    00:00 +6°C° 0 mm 4 m/S 763 mmHg 17%
    01:00 +6°C° 0 mm 4 m/S 763 mmHg 19%
    02:00 +5°C° 0 mm 4 m/S 763 mmHg 21%
    03:00 +5°C° 0 mm 4 m/S 763 mmHg 21%
    04:00 +5°C° 0 mm 4 m/S 763 mmHg 22%
    05:00 +4°C° 0 mm 4 m/S 764 mmHg 22%
    06:00 +5°C° 0 mm 4 m/S 764 mmHg 22%
    07:00 +5°C° 0 mm 5 m/S 764 mmHg 22%
    08:00 +6°C° 0 mm 5 m/S 765 mmHg 22%
    09:00 +7°C° 0 mm 5 m/S 764 mmHg 19%
    10:00 +8°C° 0 mm 5 m/S 764 mmHg 17%
    11:00 +9°C° 0 mm 5 m/S 764 mmHg 14%
    12:00 +9°C° 0 mm 5 m/S 763 mmHg 13%
    13:00 +10°C° 0 mm 5 m/S 762 mmHg 11%
    14:00 +12°C° 0 mm 4 m/S 761 mmHg 10%
    15:00 +12°C° 0 mm 4 m/S 761 mmHg 11%
    16:00 +12°C° 0 mm 4 m/S 760 mmHg 11%
    17:00 +12°C° 0 mm 4 m/S 760 mmHg 12%
    18:00 +12°C° 0 mm 4 m/S 760 mmHg 13%
    19:00 +11°C° 0 mm 3 m/S 761 mmHg 14%
    20:00 +10°C° 0 mm 2 m/S 761 mmHg 15%
    21:00 +10°C° 0 mm 2 m/S 761 mmHg 17%
    22:00 +9°C° 0 mm 3 m/S 761 mmHg 19%
    23:00 +9°C° 0 mm 3 m/S 761 mmHg 21%
    Mehr zeigen